Wind_Speed
34 35 36 37 37 38 39 40 41 41 42 42 43 44 44 45 42 42 44 30 33 32 33 29 25 19 20 21 23 24 32 32 30 31 33 21 20 14 18 15 20 16 12 12 17
33 34 36 37 38 38 39 41 41 42 44 44 43 43 44 45 45 48 38 37 35 33 34 32 29 24 25 26 25 28 43 50 46 35 25 19 23 27 21 25 27 19 35 29 17
29 30 32 33 34 35 38 40 42 44 45 46 45 44 45 47 46 47 45 42 40 36 33 33 30 28 26 27 29 31 46 42 37 33 24 27 30 32 32 31 26 25 30 33 28
21 21 23 25 27 29 32 34 37 40 43 45 46 46 47 47 40 36 38 41 42 40 39 39 37 37 39 37 34 34 40 37 36 33 30 32 28 35 37 35 33 34 31 32 35
21 21 21 21 22 23 24 25 27 30 34 39 42 44 45 51 52 42 38 28 26 30 35 39 40 38 43 42 33 43 42 36 34 32 31 28 32 34 39 36 36 41 43 38 38
22 22 23 24 24 24 24 24 24 25 26 27 30 36 44 53 44 37 38 40 38 31 32 31 36 34 42 44 43 44 38 37 35 35 34 38 39 39 42 41 45 46 46 40 43
25 26 26 26 27 27 27 26 26 25 25 25 26 28 39 41 35 36 34 40 46 44 37 32 22 16 26 34 44 45 44 41 46 46 45 38 50 54 46 43 47 43 46 46 44
24 26 27 29 29 29 28 27 27 29 28 27 26 29 43 23 26 29 35 37 36 34 40 39 34 35 33 29 31 33 39 46 53 47 47 36 69 52 46 49 52 51 48 45 47
26 27 28 30 30 31 31 28 25 24 24 27 26 31 36 15 14 14 25 34 39 38 32 35 36 39 37 33 29 35 39 46 57 51 44 30 59 48 48 50 51 49 44 41 46
28 31 32 32 33 34 32 28 25 24 24 25 23 26 12 2 2 4 5 7 11 19 34 31 25 38 41 39 42 38 36 48 56 34 29 38 53 47 43 47 46 46 46 44 44
24 23 23 24 25 26 24 24 24 23 12 20 18 26 11 11 12 10 11 11 8 7 15 23 31 48 65 58 51 40 33 41 40 37 38 49 45 43 43 42 41 40 40 37 35
21 24 25 27 27 27 26 24 16 25 38 25 31 37 35 23 25 22 21 20 18 18 14 17 44 51 43 37 42 44 44 43 33 28 32 38 37 37 39 40 37 35 37 41 42
24 26 27 27 28 27 23 13 21 25 32 20 13 19 25 27 28 23 18 21 26 25 21 27 31 28 36 35 35 42 46 41 38 29 36 36 42 39 42 43 40 40 38 38 38
25 27 29 28 29 27 21 26 31 24 20 15 16 15 16 5 24 13 21 23 24 25 23 29 33 31 29 40 35 42 34 33 34 30 34 26 29 41 40 39 33 29 33 34 34
24 26 28 30 31 29 28 28 22 15 5 20 15 10 5 9 7 3 5 21 25 25 22 40 17 23 32 31 30 46 28 33 28 35 38 39 28 43 28 35 32 35 29 31 35
25 25 23 25 28 27 27 24 18 7 3 20 22 21 16 13 13 11 11 10 13 17 24 33 29 28 29 26 28 32 28 33 34 35 20 39 35 46 39 34 37 31 27 28 22
23 24 19 18 24 28 26 20 9 6 14 16 25 21 18 16 9 11 13 13 12 13 22 22 23 25 29 32 28 26 33 12 14 14 16 31 27 41 41 36 32 25 21 20 21
25 25 17 18 22 26 28 15 4 16 20 23 25 21 15 24 17 13 12 12 15 22 23 23 17 20 16 31 29 29 31 17 13 8 19 30 13 29 23 24 29 23 21 21 15
26 27 17 22 26 22 23 12 8 19 21 24 24 22 17 22 24 19 19 13 13 10 9 11 14 19 17 16 29 34 38 42 33 25 17 17 29 37 33 24 19 20 24 19 17
26 22 13 19 32 18 19 16 22 25 25 21 20 15 22 21 16 16 15 9 9 4 7 11 20 27 26 17 26 37 35 19 34 12 12 10 28 25 20 20 14 13 21 20 19
25 14 18 23 28 19 20 19 26 27 18 17 23 18 17 15 21 22 7 17 17 15 12 11 14 37 28 22 20 22 40 35 23 30 9 7 17 29 20 16 17 15 20 22 16
19 11 18 17 18 20 26 24 23 27 22 16 21 17 17 22 23 19 17 14 15 17 12 15 16 19 22 30 25 27 27 38 22 28 26 23 21 9 6 10 17 16 20 21 15
18 14 19 18 19 24 24 22 17 21 24 20 22 24 23 23 16 16 20 14 13 14 13 10 6 10 10 19 24 24 25 37 29 25 38 17 26 24 9 11 12 9 29 21 13
22 13 16 17 14 18 21 23 24 21 22 20 19 22 22 19 19 21 14 13 14 14 11 12 12 14 15 11 15 16 14 24 37 31 32 32 41 30 16 17 17 17 19 14 11
23 15 19 24 14 16 18 19 24 27 23 25 19 19 23 23 22 22 20 17 16 14 14 9 9 15 19 25 20 27 23 18 22 31 38 34 27 22 18 21 17 19 15 14 16
25 27 27 22 18 19 24 26 22 26 33 20 29 31 24 20 19 28 23 27 21 19 19 12 13 20 24 12 12 30 27 25 25 30 31 42 33 18 12 21 25 18 16 18 17
22 21 20 23 25 22 24 26 31 27 21 22 30 19 26 18 27 34 29 31 27 21 23 23 23 16 10 9 4 17 31 26 28 29 34 35 32 21 34 27 27 21 16 20 15
Wind_Direction
282 281 281 280 278 278 276 274 273 272 269 267 265 265 262 258 256 256 252 257 253 250 253 250 246 243 250 240 230 232 239 246 249 249 251 261 257 278 304 312 277 280 290 283 269
284 283 282 281 280 277 275 277 274 272 270 270 267 265 263 262 257 254 258 252 249 251 248 247 248 241 243 250 243 225 241 251 248 243 244 258 269 263 286 292 274 279 294 285 260
286 285 283 281 278 275 275 275 272 273 272 271 269 267 265 263 261 261 255 251 250 248 249 248 243 235 245 242 241 242 245 245 247 241 236 253 261 263 271 292 278 280 297 312 299
303 302 300 298 295 290 283 274 268 266 266 268 268 268 267 263 262 258 258 252 249 247 245 243 239 234 235 232 237 241 250 248 254 252 246 248 260 265 259 274 276 280 276 287 291
320 318 315 312 308 304 302 298 292 283 274 266 264 264 262 263 258 253 257 253 246 243 242 241 242 239 238 238 230 244 250 252 256 257 260 260 261 265 266 272 280 282 282 278 287
328 324 319 314 309 307 304 302 300 297 293 287 277 265 261 258 263 258 250 242 240 237 236 234 239 239 245 241 234 243 249 255 253 256 255 259 267 268 267 271 274 274 279 282 280
344 340 334 328 322 315 309 304 300 295 291 289 287 280 264 265 263 255 251 252 247 234 229 228 224 238 254 250 242 241 243 246 247 246 253 264 269 255 264 270 272 278 278 280 283
341 336 332 328 325 323 321 316 306 295 289 284 282 281 276 283 265 253 246 242 242 248 240 227 203 212 221 235 247 253 245 251 241 240 245 255 261 261 265 265 271 276 276 272 272
346 342 338 334 331 325 321 320 314 303 299 290 287 279 288 282 272 251 234 242 243 236 225 227 213 210 212 222 237 235 241 242 246 240 246 244 260 264 265 272 269 274 279 276 273
359 356 352 346 341 335 332 330 311 304 301 298 288 275 264 2 4 279 237 221 257 242 228 217 217 223 219 213 225 225 231 239 245 249 254 253 259 269 272 276 269 274 278 273 277
3 360 355 352 353 344 344 335 315 325 307 288 260 267 209 153 159 233 303 310 276 225 226 221 213 219 227 223 231 234 242 249 257 254 255 255 259 266 266 268 273 269 274 273 273
2 3 2 356 351 342 336 343 340 319 307 309 284 270 259 234 242 221 209 231 245 245 237 225 225 234 233 234 235 234 239 246 256 254 255 262 265 269 266 267 268 272 274 274 273
1 2 1 351 346 339 336 310 293 302 299 336 334 331 264 239 253 256 237 239 241 243 233 237 238 244 234 236 231 239 238 248 258 263 251 269 279 269 260 264 266 269 276 275 272
359 357 356 352 344 343 332 332 326 307 301 328 25 20 13 237 250 250 258 245 241 245 242 250 240 240 238 234 229 241 237 252 253 257 258 261 271 267 264 270 273 274 275 278 274
357 355 352 352 346 344 347 339 340 330 297 353 349 18 350 198 274 229 241 217 233 236 235 241 242 241 241 244 238 244 245 248 251 251 257 258 259 264 263 265 271 270 272 274 284
354 354 353 351 346 351 354 347 0 353 317 359 356 349 2 344 321 277 193 216 229 228 235 248 256 252 248 250 244 243 246 247 251 260 270 253 239 263 259 264 270 274 278 284 271
349 350 347 349 353 359 354 355 16 14 351 347 353 346 343 332 319 288 277 252 237 245 252 258 255 255 247 253 236 237 239 247 237 237 241 244 249 257 267 263 262 266 278 266 275
346 344 340 355 357 353 354 7 356 345 349 342 342 336 2 351 326 309 302 293 264 247 262 263 268 246 248 244 245 241 233 215 214 203 253 256 256 251 269 277 263 249 260 263 264
350 346 354 7 359 342 347 9 321 331 325 334 334 337 354 351 346 351 314 303 292 260 263 286 267 272 252 236 228 237 244 231 244 268 265 250 245 265 264 258 247 251 243 246 237
350 355 9 349 343 345 351 339 338 323 306 316 332 331 330 338 345 336 333 331 306 312 261 303 282 280 258 270 239 228 227 236 228 232 253 249 255 245 271 224 233 215 208 227 231
352 352 348 337 338 345 353 332 333 335 351 320 318 311 319 322 334 323 295 304 286 278 278 302 277 272 283 280 263 233 234 236 240 225 237 242 267 272 248 199 195 193 190 212 222
355 348 339 346 337 331 336 340 330 337 334 333 334 337 325 320 318 315 327 316 328 309 285 290 281 280 269 264 240 248 262 234 236 220 238 238 256 2 227 188 187 190 197 204 214
4 354 354 339 330 322 331 331 338 341 340 343 332 319 305 306 317 312 316 315 307 307 332 274 268 304 299 263 244 256 251 227 235 246 230 237 245 228 203 187 198 196 188 192 202
360 360 316 304 309 316 325 336 331 343 327 323 325 323 334 332 321 315 298 309 290 289 269 313 284 253 272 246 313 297 242 218 229 237 227 238 241 267 197 179 165 177 187 207 213
355 340 329 333 347 330 321 318 325 326 328 324 328 317 312 305 308 312 304 299 303 320 270 284 289 297 285 283 274 283 276 236 244 236 224 235 231 235 204 197 187 177 189 198 176
349 348 337 349 350 342 330 337 329 329 332 337 313 314 317 314 302 297 303 299 290 295 300 271 294 309 306 260 248 268 261 259 231 219 228 230 234 222 149 162 164 169 177 172 158
341 338 333 336 344 339 333 331 328 325 314 322 319 325 324 318 317 302 291 281 274 273 273 270 280 295 281 171 255 270 244 235 219 219 224 226 235 209 197 158 155 157 173 169 172
Height
3119 3117 3116 3114 3114 3112 3112 3111 3110 3111 3111 3113 3114 3114 3115 3117 3120 3119 3122 3135 3132 3134 3135 3138 3140 3144 3144 3146 3147 3150 3147 3144 3149 3148 3148 3151 3152 3152 3157 3156 3156 3156 3157 3158 3160
3111 3110 3108 3107 3105 3105 3104 3102 3102 3102 3102 3102 3104 3105 3106 3106 3109 3109 3122 3121 3124 3125 3127 3131 3134 3138 3136 3140 3140 3141 3134 3135 3143 3145 3144 3148 3153 3150 3151 3151 3154 3154 3153 3153 3155
3105 3103 3101 3100 3099 3098 3096 3094 3094 3092 3091 3092 3093 3095 3096 3096 3100 3101 3106 3111 3113 3117 3120 3124 3126 3129 3129 3133 3134 3134 3123 3132 3136 3140 3142 3142 3144 3146 3146 3144 3150 3152 3149 3149 3152
3100 3098 3095 3093 3090 3088 3087 3087 3087 3086 3084 3083 3083 3083 3084 3086 3093 3089 3093 3099 3104 3108 3111 3114 3116 3120 3119 3121 3127 3127 3124 3127 3131 3136 3138 3137 3140 3139 3139 3140 3143 3144 3144 3145 3147
3096 3093 3091 3088 3086 3083 3081 3078 3077 3075 3074 3074 3074 3074 3075 3073 3073 3083 3085 3089 3093 3098 3101 3105 3108 3112 3111 3116 3122 3116 3119 3124 3126 3130 3130 3134 3132 3132 3131 3135 3136 3137 3137 3137 3137
3092 3089 3087 3084 3081 3079 3077 3074 3071 3069 3066 3064 3063 3063 3062 3060 3069 3076 3073 3076 3083 3088 3091 3096 3098 3105 3105 3109 3112 3113 3116 3117 3122 3123 3125 3128 3127 3128 3128 3131 3129 3130 3129 3129 3129
3088 3085 3082 3079 3076 3073 3071 3069 3067 3064 3062 3059 3055 3053 3049 3052 3060 3061 3062 3066 3069 3075 3079 3088 3093 3098 3099 3102 3102 3106 3107 3108 3109 3114 3116 3127 3115 3112 3122 3124 3121 3122 3121 3121 3121
3086 3083 3079 3075 3072 3069 3066 3063 3060 3056 3055 3053 3051 3046 3034 3050 3048 3050 3055 3056 3060 3064 3070 3076 3081 3085 3089 3093 3095 3098 3103 3097 3095 3103 3105 3124 3086 3110 3115 3115 3112 3113 3112 3111 3111
3083 3079 3075 3072 3068 3065 3061 3058 3053 3049 3047 3045 3045 3040 3035 3040 3041 3042 3044 3046 3053 3056 3062 3069 3075 3077 3083 3083 3088 3088 3086 3086 3084 3094 3103 3113 3084 3101 3106 3106 3103 3104 3103 3102 3100
3080 3075 3071 3068 3064 3059 3055 3054 3048 3045 3042 3038 3037 3035 3036 3037 3036 3038 3038 3041 3045 3047 3055 3059 3066 3069 3071 3073 3064 3075 3078 3071 3070 3092 3097 3099 3088 3093 3096 3097 3096 3095 3094 3092 3092
3079 3075 3070 3065 3061 3056 3054 3051 3049 3043 3038 3036 3035 3029 3031 3031 3033 3039 3039 3041 3043 3046 3048 3053 3058 3046 3040 3060 3064 3070 3070 3070 3074 3087 3092 3085 3086 3087 3085 3086 3086 3087 3086 3087 3084
3078 3072 3067 3062 3059 3055 3050 3046 3046 3042 3027 3028 3022 3018 3021 3029 3025 3028 3035 3036 3040 3041 3046 3050 3036 3040 3053 3059 3062 3065 3064 3061 3072 3081 3083 3078 3078 3079 3077 3076 3077 3079 3078 3077 3077
3076 3070 3065 3061 3057 3052 3048 3046 3041 3035 3027 3016 3015 3009 3008 3018 3017 3022 3028 3030 3033 3036 3040 3038 3034 3042 3047 3051 3056 3055 3057 3062 3067 3076 3071 3072 3068 3068 3067 3066 3069 3070 3070 3070 3067
3074 3068 3064 3061 3058 3051 3046 3042 3037 3032 3025 3017 3014 3014 3012 3013 3015 3017 3020 3027 3029 3030 3034 3030 3030 3034 3039 3040 3052 3049 3057 3062 3068 3073 3065 3073 3061 3058 3060 3061 3062 3062 3061 3060 3059
3074 3068 3063 3057 3054 3049 3045 3039 3033 3031 3030 3020 3016 3012 3014 3017 3016 3013 3016 3021 3022 3026 3029 3017 3025 3030 3031 3038 3047 3039 3055 3059 3063 3064 3064 3062 3063 3041 3054 3052 3055 3053 3053 3052 3052
3072 3067 3062 3059 3054 3049 3043 3038 3034 3034 3030 3025 3021 3018 3016 3016 3013 3012 3015 3018 3019 3021 3020 3018 3025 3026 3026 3033 3037 3044 3050 3054 3057 3059 3056 3045 3054 3030 3044 3048 3045 3047 3047 3046 3045
3071 3066 3061 3058 3054 3047 3042 3039 3037 3036 3034 3030 3025 3022 3019 3014 3013 3015 3015 3014 3016 3018 3016 3016 3017 3020 3024 3025 3029 3035 3043 3048 3049 3048 3031 3042 3044 3032 3035 3037 3038 3041 3041 3041 3039
3068 3064 3060 3056 3051 3047 3043 3040 3040 3038 3033 3030 3027 3022 3021 3016 3012 3010 3009 3011 3015 3014 3011 3013 3013 3014 3018 3019 3023 3025 3033 3036 3039 3035 3029 3040 3033 3025 3024 3030 3032 3034 3039 3035 3035
3065 3061 3058 3054 3052 3049 3045 3041 3041 3037 3034 3028 3023 3019 3020 3018 3012 3010 3009 3007 3010 3009 3012 3010 3006 3007 3010 3013 3021 3020 3019 3024 3032 3032 3032 3028 3026 3026 3021 3024 3026 3028 3033 3030 3033
3064 3058 3057 3053 3053 3048 3046 3044 3041 3037 3031 3029 3026 3023 3019 3017 3017 3016 3010 3008 3007 3007 3004 3009 3003 3002 3004 3006 3005 3009 3017 3025 3026 3032 3033 3022 3020 3017 3013 3016 3021 3023 3027 3027 3030
3061 3056 3054 3054 3050 3047 3045 3042 3039 3032 3031 3024 3024 3021 3019 3017 3016 3014 3012 3010 3007 3005 3006 3007 3005 2994 3000 3000 3003 3006 3008 3015 3020 3022 3024 3027 3016 3009 3012 3013 3017 3019 3022 3025 3028
3062 3057 3055 3052 3050 3046 3045 3041 3039 3033 3030 3026 3023 3018 3017 3014 3012 3010 3010 3009 3007 3004 3001 3005 3002 2995 2994 2994 2998 2999 3002 3012 3015 3014 3017 3019 3011 3007 3011 3013 3015 3016 3019 3023 3027
3063 3057 3056 3052 3049 3045 3043 3039 3036 3031 3028 3024 3022 3018 3014 3012 3012 3008 3005 3004 3004 3002 3001 3002 3000 2995 2987 2990 2993 2994 2995 3001 3010 3015 3012 3015 3007 3009 3012 3011 3012 3013 3017 3022 3025
3063 3059 3057 3053 3049 3045 3040 3036 3033 3031 3028 3024 3021 3016 3013 3010 3010 3007 3003 3003 3000 3000 2998 2998 2996 2996 2993 2986 2991 2988 2987 2993 3003 3005 3005 3002 3001 3009 3010 3010 3011 3014 3018 3020 3022
3063 3061 3055 3049 3045 3042 3040 3036 3031 3027 3025 3021 3015 3015 3011 3007 3003 3001 3000 3000 2998 2995 2992 2994 2992 2992 2986 2982 2986 2984 2983 2984 2988 2996 2996 2997 3003 3008 3008 3007 3008 3011 3016 3017 3020
3062 3057 3052 3049 3044 3040 3037 3034 3029 3024 3022 3017 3013 3008 3006 3003 3001 2995 2995 2994 2994 2994 2991 2989 2988 2986 2979 2977 2981 2980 2976 2979 2981 2983 2990 2995 2999 3005 3001 3004 3008 3010 3013 3016 3020
3062 3059 3052 3046 3042 3039 3036 3031 3026 3021 3018 3016 3010 3002 3000 2995 2993 2988 2986 2984 2985 2987 2988 2988 2985 2983 2975 2976 2976 2978 2971 2975 2979 2981 2983 2993 2997 2997 3001 2998 3007 3010 3013 3017 3021